SCP
0 0 -0 -0 -0 -0 -0 -0 -0 -0 -0 -0 -0 -0 -0 0 0 0 0 0 0 0 0 0 0 0 0 0 0 0 0 0 0 0 0 0 0 0 0 0 0 0 0
0 0 -0 -0 -0 -0 -0 -0 -0 -0 -0 -0 -0 -0 0 0 0 0 0 0 0 0 0 0 0 0 0 0 0 0 0 0 0 0 0 0 0 0 0 0 0 0 0
0 0 0 -0 -0 -0 -0 -0 -0 -0 -0 0 0 0 0 0 0 0 0 0 0 0 0 0 0 0 0 0 0 0 0 0 0 0 0 0 0 0 0 0 0 0 0
0 0 0 -0 -0 0 0 0 0 0 0 0 0 0 0 0 0 0 0 0 0 0 0 0 0 0 0 0 0 0 0 0 0 0 0 0 0 0 0 0 0 0 0
0 0 0 0 0 0 0 0 0 0 0 0 0 0 0 0 0 0 0 0 0 0 0 0 0 0 0 0 0 0 0 0 0 0 0 0 0 0 0 0 0 0 0
0 0 0 0 0 0 0 0 0 0 0 0 0 0 0 0 0 0 0 0 0 0 0 0 0 0 0 0 0 0 0 0 0 0 0 0 0 0 0 0 0 0 0
0 0 0 0 0 0 0 0 0 0 0 0 0 0 0 0 0 0 0 0 0 0 0 0 0 0 0 0 0 0 0 0 0 0 0 0 0 0 0 0 1 0 0
0 0 -0 0 0 0 0 0 0 0 0 0 0 0 0 0 0 0 0 0 0 0 0 0 0 0 0 0 0 0 0 0 0 0 0 0 0 1 1 1 1 1 0
0 0 0 -0 0 0 0 0 0 0 0 0 0 0 0 0 0 0 0 0 0 0 0 0 0 0 0 0 0 0 0 0 0 0 0 0 1 1 1 1 1 1 1
0 0 0 0 0 0 0 0 0 0 0 0 0 0 0 0 0 0 0 0 0 0 0 0 0 0 0 0 0 0 0 0 0 0 0 0 1 1 1 1 1 1 1
0 0 0 0 0 0 0 0 0 0 0 -0 0 0 0 0 0 0 0 0 0 0 0 0 0 0 0 0 0 0 0 0 0 0 0 0 1 1 1 1 1 1 1
0 0 0 0 0 0 0 0 0 0 0 0 0 0 0 0 0 0 0 0 0 0 0 0 0 0 0 0 0 0 0 0 0 0 0 1 1 1 1 1 1 1 1
0 0 0 0 0 0 0 0 0 0 0 0 0 0 0 0 0 0 0 0 0 0 0 0 0 0 0 0 0 0 0 0 0 0 0 0 1 1 1 1 1 1 1
0 0 0 0 0 0 0 0 0 0 0 0 0 0 0 0 0 0 0 0 0 0 0 0 0 0 0 0 0 0 0 0 0 0 0 0 0 0 0 0 1 1 1
0 0 0 0 0 0 0 -0 0 0 0 0 0 0 0 0 0 0 0 0 0 0 0 0 0 0 0 0 0 0 0 0 0 0 0 1 0 0 0 0 0 0 1
0 0 0 0 0 0 0 0 -0 0 0 0 0 0 0 0 0 0 0 0 0 0 0 0 0 0 0 0 0 0 0 0 0 0 0 0 0 1 1 0 0 0 0
0 0 0 0 0 0 0 0 -0 0 0 -0 0 0 0 0 0 0 0 0 0 0 0 0 0 0 0 0 0 0 0 0 0 0 0 0 0 0 1 0 1 1 1
0 0 0 0 0 0 0 0 0 0 0 0 0 0 0 0 0 0 0 0 0 0 0 0 0 0 0 0 0 0 0 0 0 0 0 0 0 0 0 1 1 1 0
0 0 0 0 0 0 0 0 0 0 0 0 0 0 0 0 0 0 0 0 0 0 0 0 0 0 0 0 0 0 0 0 0 0 0 0 0 0 0 1 1 0 0
0 0 0 0 0 0 0 0 0 0 0 0 0 0 0 0 0 0 0 0 0 0 0 0 0 0 0 0 0 0 0 0 0 0 0 0 0 0 0 0 1 1 1
0 0 0 0 0 0 0 0 0 0 0 0 0 0 0 0 0 0 0 0 0 0 0 0 0 0 0 0 0 0 0 0 0 0 0 0 0 0 0 0 0 0 1
0 0 0 0 0 0 0 0 0 0 0 0 0 0 0 0 0 0 0 0 0 0 0 0 0 0 0 0 0 0 0 0 0 0 0 0 0 0 0 0 0 0 0
0 0 0 0 0 0 0 0 0 -0 0 0 0 0 0 0 0 0 0 0 0 0 0 0 0 0 0 0 0 0 0 0 0 0 0 0 0 0 0 0 0 0 0
0 0 0 0 0 0 0 0 0 0 0 0 0 0 0 0 0 0 0 0 0 0 0 0 0 0 0 0 0 0 0 0 0 0 0 0 0 0 0 0 0 0 0
0 0 1 0 0 0 0 0 0 0 0 0 0 0 0 0 0 0 0 0 0 0 0 0 0 0 0 0 0 0 0 0 0 0 -0 0 0 0 0 0 0 0 0
0 0 0 0 0 0 0 0 0 0 0 0 0 0 0 0 0 0 0 0 0 0 0 0 0 0 0 0 0 0 0 0 0 0 0 0 0 0 0 0 0 0 0
Wind_Speed_500mb
25 25 21 19 18 16 17 17 19 17 15 13 12 11 10 9 8 8 8 6 7 7 10 6 7 9 11 13 12 10 7 5 5 7 10 14 15 16 20 23 21 17 18
27 24 18 16 13 12 16 17 21 19 18 16 14 11 10 9 8 6 5 5 4 3 3 3 1 2 6 8 8 8 8 10 12 13 12 11 12 14 15 15 15 15 16
24 24 17 13 12 9 7 9 11 10 11 12 12 11 9 7 5 4 4 4 4 4 4 3 4 7 6 5 4 4 4 6 10 12 14 11 10 9 15 12 15 14 14
30 27 23 16 12 9 3 4 6 7 10 11 11 11 10 8 6 4 2 3 5 8 9 10 9 8 8 8 7 6 6 8 12 17 14 8 5 1 12 13 16 13 15
30 26 21 13 10 8 4 3 7 9 9 8 7 6 6 7 7 8 7 7 8 9 11 13 15 14 14 14 12 10 10 11 16 17 7 12 14 4 8 13 16 16 18
26 20 16 13 11 9 6 7 8 8 9 9 10 10 9 10 10 10 11 11 12 13 14 15 15 17 18 19 18 17 15 15 19 26 17 12 22 21 12 14 14 17 19
25 23 20 16 13 11 13 15 18 17 14 14 14 15 15 15 17 17 18 17 18 19 21 20 20 21 22 22 23 23 22 22 24 31 19 15 26 27 25 16 14 19 22
26 25 21 19 17 15 19 24 27 25 23 20 20 19 18 16 15 17 21 22 19 23 25 25 25 25 25 25 26 26 26 27 29 34 27 17 32 41 27 23 18 23 28
25 25 23 18 17 19 18 27 34 23 18 16 14 13 11 11 17 20 27 28 38 33 25 24 26 28 29 28 27 27 28 27 32 33 35 24 17 36 33 27 24 24 28
22 20 21 19 15 17 14 22 27 25 22 21 11 7 14 7 11 17 30 33 33 30 23 20 20 19 19 23 28 27 24 28 30 31 36 28 23 32 39 41 31 28 28
30 25 11 15 12 11 12 21 18 21 22 26 26 6 11 10 9 12 17 24 24 21 28 23 22 21 15 10 6 13 20 18 23 26 29 27 30 35 41 34 31 33 32
24 8 4 13 14 13 0 2 11 12 19 25 21 14 18 7 5 12 15 20 16 20 22 28 26 26 20 16 12 6 15 10 9 11 30 36 29 37 40 36 38 37 36
40 25 4 2 11 5 1 10 7 6 12 17 17 23 18 6 10 20 16 17 20 12 20 19 12 19 25 30 24 22 12 12 15 20 39 31 18 37 40 38 37 37 35
39 25 14 5 9 14 17 7 13 10 11 8 13 23 28 27 19 15 9 11 16 18 23 23 24 19 27 21 14 12 23 29 29 21 17 26 24 21 20 25 36 36 35
29 27 14 9 8 17 23 19 8 6 16 10 15 24 33 38 25 18 9 8 12 21 27 32 12 16 23 20 16 19 24 25 32 31 24 22 33 34 33 33 33 33 36
34 28 15 11 13 17 21 24 4 9 25 12 16 27 30 33 25 18 8 7 15 23 29 28 15 22 29 26 24 20 23 29 32 31 44 34 26 24 35 43 38 34 39
30 22 21 13 21 19 19 21 8 10 20 5 10 25 29 26 29 25 8 7 18 25 30 14 23 24 29 34 34 31 22 25 33 36 32 45 47 40 31 31 39 38 36
36 26 27 15 19 22 23 15 11 16 22 25 16 22 22 27 31 21 24 19 22 27 13 19 24 33 38 42 38 27 24 28 33 33 31 36 39 43 36 37 39 40 41
42 35 29 28 35 32 26 12 10 13 24 28 20 21 18 29 38 34 27 23 15 24 19 22 28 36 44 29 23 21 30 38 25 23 31 35 34 34 38 37 43 45 37
30 31 35 35 39 40 32 21 14 13 28 23 24 27 32 37 37 27 23 30 27 22 24 27 33 39 34 30 31 35 32 30 38 34 38 38 40 43 44 46 37 48 50
25 32 33 35 40 43 38 29 24 40 33 18 30 34 38 39 31 19 27 22 28 33 35 26 34 37 31 29 35 34 36 30 14 26 35 37 41 36 45 39 44 42 42
35 44 40 42 28 41 33 30 17 32 38 30 37 46 46 40 28 23 25 29 29 34 26 25 33 36 34 23 28 34 25 36 13 15 19 24 32 40 38 41 42 43 46
25 31 36 40 36 24 39 25 33 35 39 32 29 40 42 35 35 37 34 35 34 32 28 27 37 38 32 26 19 22 15 11 46 34 30 29 30 33 43 41 47 45 38
16 17 21 23 22 26 46 40 37 36 40 38 39 36 35 35 46 41 27 34 33 28 32 32 27 30 30 31 24 22 21 25 18 33 34 39 36 37 41 43 49 42 35
6 17 22 20 15 19 24 41 41 38 44 41 34 34 39 38 31 25 25 24 28 26 27 32 31 24 27 31 28 28 24 29 30 35 58 57 48 45 49 50 49 52 46
19 20 23 24 17 13 13 28 40 39 49 45 41 36 30 26 28 30 33 28 22 22 25 26 24 21 23 27 26 26 31 34 40 43 45 53 56 45 43 51 50 54 47
Wind_Direction_500mb
146 140 121 110 88 53 43 39 31 22 25 33 36 36 32 34 43 55 65 86 114 115 101 116 163 177 184 187 191 197 186 153 152 130 131 139 148 152 155 141 133 118 126
160 158 147 120 101 76 44 25 24 22 21 27 38 43 35 27 21 18 24 31 20 44 165 187 199 205 201 207 207 203 187 160 149 150 146 149 159 157 157 159 135 142 144
143 152 168 170 145 125 69 354 10 13 26 28 33 41 46 42 32 16 356 318 295 288 273 257 253 255 255 240 225 208 183 173 153 151 138 140 158 172 170 175 164 155 159
136 146 152 155 140 112 100 6 8 21 31 26 23 16 16 17 17 9 332 275 271 266 268 272 266 261 262 254 237 224 191 196 175 144 117 95 191 237 202 191 189 177 168
139 143 143 133 113 92 61 18 4 10 14 12 12 8 10 1 348 340 328 310 295 283 274 264 262 259 255 251 248 235 220 203 188 177 175 193 238 268 241 217 205 195 188
138 133 121 107 90 74 38 2 346 341 330 326 320 320 325 327 325 316 305 296 284 277 275 271 255 251 248 248 244 240 227 213 198 184 183 220 244 236 263 240 225 215 200
136 124 108 96 82 57 22 357 338 322 308 300 302 304 312 318 318 317 309 300 293 287 280 274 267 260 255 251 247 239 233 225 215 202 206 215 245 240 250 219 250 241 221
111 104 84 62 45 29 17 358 342 321 309 305 305 313 318 327 343 344 341 335 315 312 298 286 278 273 266 259 254 251 240 232 227 216 219 221 246 241 239 239 254 249 229
99 89 74 50 35 19 360 350 344 341 331 323 323 337 358 11 357 348 347 350 342 335 323 305 292 283 274 270 266 262 257 247 239 231 231 239 230 234 238 251 257 252 234
131 126 100 75 39 10 359 346 346 349 358 358 342 74 16 346 354 349 343 347 344 355 360 2 353 339 312 284 269 264 268 264 256 244 238 247 258 248 239 257 238 238 238
137 142 128 152 106 27 355 342 340 332 344 351 349 335 1 321 305 324 322 333 336 3 9 7 4 20 0 15 338 264 261 276 284 265 256 254 263 245 241 232 242 238 244
128 110 143 120 155 142 192 106 7 324 345 344 335 1 281 340 299 304 313 319 327 360 357 350 357 351 334 320 301 299 256 263 304 266 278 278 267 241 232 235 233 234 241
133 131 163 132 93 135 215 155 140 39 341 328 343 331 332 286 339 302 276 296 300 342 335 314 312 339 327 298 282 260 247 255 240 272 263 272 238 227 229 226 230 233 241
170 159 159 215 45 57 39 49 195 238 234 277 309 308 316 325 278 314 297 38 360 335 301 305 303 297 311 319 347 329 266 250 245 225 281 276 237 220 231 238 239 239 237
206 180 200 216 1 19 24 20 39 339 297 308 277 300 303 315 297 315 256 353 321 308 306 324 327 334 354 342 340 323 313 297 268 239 245 265 263 259 257 248 249 244 248
188 180 187 256 290 342 11 4 38 314 358 280 295 305 307 316 337 329 196 283 314 303 305 318 343 337 321 307 298 294 296 290 291 290 247 252 269 264 257 255 255 260 256
203 198 188 244 294 313 352 359 22 346 342 292 294 287 306 308 318 335 296 286 324 308 301 313 320 304 295 292 291 281 293 294 290 280 287 257 258 261 271 266 257 251 245
224 234 211 216 253 294 307 356 357 303 302 327 290 309 286 290 310 322 304 273 303 305 320 305 311 300 299 301 293 273 267 283 275 288 293 287 271 262 266 275 266 255 250
238 246 228 223 242 260 284 315 337 335 330 309 299 303 271 290 303 307 290 315 290 308 311 299 300 307 309 300 300 299 290 282 281 271 276 279 279 271 274 270 267 270 261
229 217 230 234 235 254 271 283 300 294 296 283 285 285 280 292 302 297 292 305 291 298 291 293 302 306 314 311 300 302 312 313 274 259 265 264 268 266 265 265 265 271 266
241 252 260 246 245 250 280 289 308 287 301 292 280 281 282 288 301 284 294 291 291 297 301 298 296 301 312 313 308 302 305 327 298 257 277 261 261 271 263 263 264 257 264
245 251 258 261 284 276 271 252 274 283 286 300 285 278 285 293 294 274 280 280 291 295 293 298 302 303 308 323 312 316 323 329 286 254 287 264 258 261 258 258 259 261 264
260 259 266 288 288 284 248 250 265 256 271 284 294 279 296 294 306 303 283 280 280 283 288 296 292 300 299 310 308 314 313 305 312 315 300 271 261 260 257 261 259 257 253
284 336 302 298 303 282 277 243 281 251 265 274 279 281 284 285 291 296 287 270 283 278 279 290 293 297 296 303 302 298 291 308 317 313 313 309 275 265 254 256 251 252 243
354 23 10 10 339 317 306 252 282 256 256 265 273 259 273 289 286 281 288 274 289 272 277 288 298 295 295 300 294 297 288 294 299 301 307 310 302 275 264 259 254 246 245
36 18 20 7 359 330 314 311 297 262 255 263 277 278 279 279 286 284 287 288 300 291 283 297 295 294 296 299 294 283 288 290 306 311 309 306 307 295 268 260 252 244 249
Wind_Speed_850mb
25 25 21 19 18 16 17 17 19 17 15 13 12 11 10 9 8 8 8 6 7 7 10 6 7 9 11 13 12 10 7 5 5 7 10 14 15 16 20 23 21 17 18
27 24 18 16 13 12 16 17 21 19 18 16 14 11 10 9 8 6 5 5 4 3 3 3 1 2 6 8 8 8 8 10 12 13 12 11 12 14 15 15 15 15 16
24 24 17 13 12 9 7 9 11 10 11 12 12 11 9 7 5 4 4 4 4 4 4 3 4 7 6 5 4 4 4 6 10 12 14 11 10 9 15 12 15 14 14
30 27 23 16 12 9 3 4 6 7 10 11 11 11 10 8 6 4 2 3 5 8 9 10 9 8 8 8 7 6 6 8 12 17 14 8 5 1 12 13 16 13 15
30 26 21 13 10 8 4 3 7 9 9 8 7 6 6 7 7 8 7 7 8 9 11 13 15 14 14 14 12 10 10 11 16 17 7 12 14 4 8 13 16 16 18
26 20 16 13 11 9 6 7 8 8 9 9 10 10 9 10 10 10 11 11 12 13 14 15 15 17 18 19 18 17 15 15 19 26 17 12 22 21 12 14 14 17 19
25 23 20 16 13 11 13 15 18 17 14 14 14 15 15 15 17 17 18 17 18 19 21 20 20 21 22 22 23 23 22 22 24 31 19 15 26 27 25 16 14 19 22
26 25 21 19 17 15 19 24 27 25 23 20 20 19 18 16 15 17 21 22 19 23 25 25 25 25 25 25 26 26 26 27 29 34 27 17 32 41 27 23 18 23 28
25 25 23 18 17 19 18 27 34 23 18 16 14 13 11 11 17 20 27 28 38 33 25 24 26 28 29 28 27 27 28 27 32 33 35 24 17 36 33 27 24 24 28
22 20 21 19 15 17 14 22 27 25 22 21 11 7 14 7 11 17 30 33 33 30 23 20 20 19 19 23 28 27 24 28 30 31 36 28 23 32 39 41 31 28 28
30 25 11 15 12 11 12 21 18 21 22 26 26 6 11 10 9 12 17 24 24 21 28 23 22 21 15 10 6 13 20 18 23 26 29 27 30 35 41 34 31 33 32
24 8 4 13 14 13 0 2 11 12 19 25 21 14 18 7 5 12 15 20 16 20 22 28 26 26 20 16 12 6 15 10 9 11 30 36 29 37 40 36 38 37 36
40 25 4 2 11 5 1 10 7 6 12 17 17 23 18 6 10 20 16 17 20 12 20 19 12 19 25 30 24 22 12 12 15 20 39 31 18 37 40 38 37 37 35
39 25 14 5 9 14 17 7 13 10 11 8 13 23 28 27 19 15 9 11 16 18 23 23 24 19 27 21 14 12 23 29 29 21 17 26 24 21 20 25 36 36 35
29 27 14 9 8 17 23 19 8 6 16 10 15 24 33 38 25 18 9 8 12 21 27 32 12 16 23 20 16 19 24 25 32 31 24 22 33 34 33 33 33 33 36
34 28 15 11 13 17 21 24 4 9 25 12 16 27 30 33 25 18 8 7 15 23 29 28 15 22 29 26 24 20 23 29 32 31 44 34 26 24 35 43 38 34 39
30 22 21 13 21 19 19 21 8 10 20 5 10 25 29 26 29 25 8 7 18 25 30 14 23 24 29 34 34 31 22 25 33 36 32 45 47 40 31 31 39 38 36
36 26 27 15 19 22 23 15 11 16 22 25 16 22 22 27 31 21 24 19 22 27 13 19 24 33 38 42 38 27 24 28 33 33 31 36 39 43 36 37 39 40 41
42 35 29 28 35 32 26 12 10 13 24 28 20 21 18 29 38 34 27 23 15 24 19 22 28 36 44 29 23 21 30 38 25 23 31 35 34 34 38 37 43 45 37
30 31 35 35 39 40 32 21 14 13 28 23 24 27 32 37 37 27 23 30 27 22 24 27 33 39 34 30 31 35 32 30 38 34 38 38 40 43 44 46 37 48 50
25 32 33 35 40 43 38 29 24 40 33 18 30 34 38 39 31 19 27 22 28 33 35 26 34 37 31 29 35 34 36 30 14 26 35 37 41 36 45 39 44 42 42
35 44 40 42 28 41 33 30 17 32 38 30 37 46 46 40 28 23 25 29 29 34 26 25 33 36 34 23 28 34 25 36 13 15 19 24 32 40 38 41 42 43 46
25 31 36 40 36 24 39 25 33 35 39 32 29 40 42 35 35 37 34 35 34 32 28 27 37 38 32 26 19 22 15 11 46 34 30 29 30 33 43 41 47 45 38
16 17 21 23 22 26 46 40 37 36 40 38 39 36 35 35 46 41 27 34 33 28 32 32 27 30 30 31 24 22 21 25 18 33 34 39 36 37 41 43 49 42 35
6 17 22 20 15 19 24 41 41 38 44 41 34 34 39 38 31 25 25 24 28 26 27 32 31 24 27 31 28 28 24 29 30 35 58 57 48 45 49 50 49 52 46
19 20 23 24 17 13 13 28 40 39 49 45 41 36 30 26 28 30 33 28 22 22 25 26 24 21 23 27 26 26 31 34 40 43 45 53 56 45 43 51 50 54 47
Wind_Direction_850mb
146 140 121 110 88 53 43 39 31 22 25 33 36 36 32 34 43 55 65 86 114 115 101 116 163 177 184 187 191 197 186 153 152 130 131 139 148 152 155 141 133 118 126
160 158 147 120 101 76 44 25 24 22 21 27 38 43 35 27 21 18 24 31 20 44 165 187 199 205 201 207 207 203 187 160 149 150 146 149 159 157 157 159 135 142 144
143 152 168 170 145 125 69 354 10 13 26 28 33 41 46 42 32 16 356 318 295 288 273 257 253 255 255 240 225 208 183 173 153 151 138 140 158 172 170 175 164 155 159
136 146 152 155 140 112 100 6 8 21 31 26 23 16 16 17 17 9 332 275 271 266 268 272 266 261 262 254 237 224 191 196 175 144 117 95 191 237 202 191 189 177 168
139 143 143 133 113 92 61 18 4 10 14 12 12 8 10 1 348 340 328 310 295 283 274 264 262 259 255 251 248 235 220 203 188 177 175 193 238 268 241 217 205 195 188
138 133 121 107 90 74 38 2 346 341 330 326 320 320 325 327 325 316 305 296 284 277 275 271 255 251 248 248 244 240 227 213 198 184 183 220 244 236 263 240 225 215 200
136 124 108 96 82 57 22 357 338 322 308 300 302 304 312 318 318 317 309 300 293 287 280 274 267 260 255 251 247 239 233 225 215 202 206 215 245 240 250 219 250 241 221
111 104 84 62 45 29 17 358 342 321 309 305 305 313 318 327 343 344 341 335 315 312 298 286 278 273 266 259 254 251 240 232 227 216 219 221 246 241 239 239 254 249 229
99 89 74 50 35 19 360 350 344 341 331 323 323 337 358 11 357 348 347 350 342 335 323 305 292 283 274 270 266 262 257 247 239 231 231 239 230 234 238 251 257 252 234
131 126 100 75 39 10 359 346 346 349 358 358 342 74 16 346 354 349 343 347 344 355 360 2 353 339 312 284 269 264 268 264 256 244 238 247 258 248 239 257 238 238 238
137 142 128 152 106 27 355 342 340 332 344 351 349 335 1 321 305 324 322 333 336 3 9 7 4 20 0 15 338 264 261 276 284 265 256 254 263 245 241 232 242 238 244
128 110 143 120 155 142 192 106 7 324 345 344 335 1 281 340 299 304 313 319 327 360 357 350 357 351 334 320 301 299 256 263 304 266 278 278 267 241 232 235 233 234 241
133 131 163 132 93 135 215 155 140 39 341 328 343 331 332 286 339 302 276 296 300 342 335 314 312 339 327 298 282 260 247 255 240 272 263 272 238 227 229 226 230 233 241
170 159 159 215 45 57 39 49 195 238 234 277 309 308 316 325 278 314 297 38 360 335 301 305 303 297 311 319 347 329 266 250 245 225 281 276 237 220 231 238 239 239 237
206 180 200 216 1 19 24 20 39 339 297 308 277 300 303 315 297 315 256 353 321 308 306 324 327 334 354 342 340 323 313 297 268 239 245 265 263 259 257 248 249 244 248
188 180 187 256 290 342 11 4 38 314 358 280 295 305 307 316 337 329 196 283 314 303 305 318 343 337 321 307 298 294 296 290 291 290 247 252 269 264 257 255 255 260 256
203 198 188 244 294 313 352 359 22 346 342 292 294 287 306 308 318 335 296 286 324 308 301 313 320 304 295 292 291 281 293 294 290 280 287 257 258 261 271 266 257 251 245
224 234 211 216 253 294 307 356 357 303 302 327 290 309 286 290 310 322 304 273 303 305 320 305 311 300 299 301 293 273 267 283 275 288 293 287 271 262 266 275 266 255 250
238 246 228 223 242 260 284 315 337 335 330 309 299 303 271 290 303 307 290 315 290 308 311 299 300 307 309 300 300 299 290 282 281 271 276 279 279 271 274 270 267 270 261
229 217 230 234 235 254 271 283 300 294 296 283 285 285 280 292 302 297 292 305 291 298 291 293 302 306 314 311 300 302 312 313 274 259 265 264 268 266 265 265 265 271 266
241 252 260 246 245 250 280 289 308 287 301 292 280 281 282 288 301 284 294 291 291 297 301 298 296 301 312 313 308 302 305 327 298 257 277 261 261 271 263 263 264 257 264
245 251 258 261 284 276 271 252 274 283 286 300 285 278 285 293 294 274 280 280 291 295 293 298 302 303 308 323 312 316 323 329 286 254 287 264 258 261 258 258 259 261 264
260 259 266 288 288 284 248 250 265 256 271 284 294 279 296 294 306 303 283 280 280 283 288 296 292 300 299 310 308 314 313 305 312 315 300 271 261 260 257 261 259 257 253
284 336 302 298 303 282 277 243 281 251 265 274 279 281 284 285 291 296 287 270 283 278 279 290 293 297 296 303 302 298 291 308 317 313 313 309 275 265 254 256 251 252 243
354 23 10 10 339 317 306 252 282 256 256 265 273 259 273 289 286 281 288 274 289 272 277 288 298 295 295 300 294 297 288 294 299 301 307 310 302 275 264 259 254 246 245
36 18 20 7 359 330 314 311 297 262 255 263 277 278 279 279 286 284 287 288 300 291 283 297 295 294 296 299 294 283 288 290 306 311 309 306 307 295 268 260 252 244 249